Date String (YYYY-MM-DD hh:mm:ss) UTC,Instrument flags,Ambient pressure (hPa),Sample flow (lpm),Bypass flow (lpm),Sample temperature (°C),Ambient temperature (°C),ASC tube jacket temperature (°C),LED temperature (°C),Box temperature (°C),Sample RH (%),Span deviation,Mass concentration (μg/m³),Mass concentration (μg/m³),Mass concentration (μg/m³)
DateTimeUTC,F1_M11,P_M11,Q1_M11,Q2_M11,T1_M11,T2_M11,T3_M11,T4_M11,T5_M11,U1_M11,ZSPAN_M11,X0_M11,X2_M11,X1_M11
2022-01-21 21:00:00,,0828.7,4.99,0.00,21.4,22.4,00.0,30.4,23.3,20.2,-002.1,0012.42,0008.63,0008.38
2022-01-21 21:01:00,,0828.7,5.01,0.00,21.6,22.9,00.0,30.5,23.6,20.0,-002.2,0012.30,0008.55,0008.31
2022-01-21 21:02:00,,0828.6,4.98,0.00,21.6,22.6,00.0,30.5,23.5,19.9,-002.2,0012.27,0008.50,0008.23
2022-01-21 21:03:00,,0828.7,5.01,0.00,21.6,22.2,00.0,30.5,23.4,20.0,-002.4,0012.04,0008.45,0008.16
2022-01-21 21:04:00,,0828.7,5.01,0.00,21.6,21.8,00.0,30.5,23.2,20.0,-002.1,0012.21,0008.39,0008.09
2022-01-21 21:05:00,,0828.7,4.99,0.00,21.5,21.6,00.0,30.5,23.2,20.1,-002.0,0012.21,0008.35,0008.04
2022-01-21 21:06:00,,0828.7,4.99,0.00,21.5,21.3,00.0,30.5,23.1,20.1,-001.9,0012.24,0008.31,0007.98
2022-01-21 21:07:00,,0828.8,5.02,0.00,21.5,21.2,00.0,30.5,23.0,20.2,-002.0,0012.20,0008.27,0007.93
2022-01-21 21:08:00,,0829.1,4.99,0.00,21.4,21.1,00.0,30.5,23.0,20.2,-002.2,0012.13,0008.23,0007.90
2022-01-21 21:09:00,,0829.3,5.00,0.00,21.4,21.0,00.0,30.5,23.0,20.3,-002.4,0012.15,0008.23,0007.90
2022-01-21 21:10:00,,0829.3,5.00,0.00,21.4,20.9,00.0,30.5,22.9,20.3,-002.6,0012.68,0008.24,0007.90
2022-01-21 21:11:00,,0829.3,5.00,0.00,21.3,20.7,00.0,30.5,22.9,20.4,-002.8,0012.79,0008.23,0007.90
2022-01-21 21:12:00,,0829.3,5.02,0.00,21.3,20.7,00.0,30.4,22.8,20.5,-002.7,0012.75,0008.23,0007.90
2022-01-21 21:13:00,,0829.3,4.98,0.00,21.2,20.6,00.0,30.4,22.8,20.4,-002.6,0012.80,0008.23,0007.90
2022-01-21 21:14:00,,0829.3,5.01,0.00,21.2,20.5,00.0,30.4,22.7,20.5,-002.6,0012.81,0008.24,0007.92
2022-01-21 21:15:00,,0829.3,4.99,0.00,21.2,20.5,00.0,30.4,22.7,20.6,-002.8,0012.97,0008.27,0007.94
2022-01-21 21:16:00,,0829.1,5.02,0.00,21.1,20.4,00.0,30.3,22.6,20.6,-002.9,0013.10,0008.28,0007.96
2022-01-21 21:17:00,,0829.3,4.98,0.00,21.1,20.4,00.0,30.3,22.6,20.7,-003.0,0013.04,0008.29,0007.99
2022-01-21 21:18:00,,0829.2,5.01,0.00,21.1,20.4,00.0,30.3,22.6,20.6,-003.0,0013.02,0008.27,0007.98
2022-01-21 21:19:00,,0829.0,4.99,0.00,21.1,21.0,00.0,30.3,22.8,20.6,-002.8,0013.01,0008.24,0007.96
2022-01-21 21:20:00,,0828.9,5.02,0.00,21.3,22.1,00.0,30.4,23.2,20.3,-002.9,0012.95,0008.21,0007.93
2022-01-21 21:21:00,,0828.8,5.00,0.00,21.5,22.8,00.0,30.4,23.5,20.1,-002.6,0012.44,0008.21,0007.91
2022-01-21 21:22:00,,0828.8,4.99,0.00,21.6,22.6,00.0,30.4,23.5,20.0,-002.4,0012.30,0008.19,0007.89
2022-01-21 21:23:00,,0828.9,5.01,0.00,21.6,22.3,00.0,30.5,23.4,20.0,-002.5,0012.26,0008.16,0007.87
2022-01-21 21:24:00,,0828.9,5.00,0.00,21.6,22.0,00.0,30.5,23.4,20.1,-002.6,0012.22,0008.15,0007.86
2022-01-21 21:25:00,,0828.9,5.02,0.00,21.6,21.7,00.0,30.5,23.3,20.2,-002.6,0012.26,0008.17,0007.85
2022-01-21 21:26:00,,0829.0,4.99,0.00,21.6,21.5,00.0,30.5,23.3,20.2,-002.4,0011.86,0008.14,0007.84
2022-01-21 21:27:00,,0829.0,4.99,0.00,21.5,21.4,00.0,30.5,23.2,20.3,-002.4,0011.66,0008.13,0007.83
2022-01-21 21:28:00,,0829.0,5.02,0.00,21.5,21.2,00.0,30.5,23.1,20.2,-002.3,0011.74,0008.16,0007.83
2022-01-21 21:29:00,,0828.9,4.99,0.00,21.5,21.1,00.0,30.5,23.1,20.3,-002.0,0011.84,0008.21,0007.87
2022-01-21 21:30:00,,0829.0,5.00,0.00,21.4,21.0,00.0,30.5,23.0,20.3,-002.0,0011.96,0008.29,0007.91
2022-01-21 21:31:00,,0829.1,5.01,0.00,21.4,20.9,00.0,30.5,23.0,20.4,-001.9,0012.01,0008.34,0007.95
2022-01-21 21:32:00,,0829.1,4.99,0.00,21.4,20.9,00.0,30.5,23.0,20.4,-001.9,0012.18,0008.36,0007.99
2022-01-21 21:33:00,,0829.1,5.01,0.00,21.4,20.8,00.0,30.5,23.0,20.5,-001.9,0012.40,0008.42,0008.05
2022-01-21 21:34:00,,0829.1,5.00,0.00,21.4,20.8,00.0,30.4,23.0,20.5,-001.8,0012.53,0008.50,0008.11
2022-01-21 21:35:00,,0829.1,5.00,0.00,21.4,20.8,00.0,30.4,23.0,20.5,-001.6,0012.71,0008.57,0008.15
2022-01-21 21:36:00,,0829.1,5.00,0.00,21.3,20.8,00.0,30.4,22.9,20.5,-001.7,0012.86,0008.60,0008.20
2022-01-21 21:37:00,,0829.1,4.99,0.00,21.3,20.7,00.0,30.4,22.9,20.4,-001.9,0013.18,0008.67,0008.25
2022-01-21 21:38:00,,0829.1,5.01,0.00,21.3,20.7,00.0,30.4,22.9,20.4,-002.1,0013.27,0008.73,0008.31
2022-01-21 21:39:00,,0829.1,4.99,0.00,21.3,20.7,00.0,30.4,22.9,20.4,-002.2,0013.30,0008.78,0008.35
2022-01-21 21:40:00,,0829.1,5.01,0.00,21.3,20.7,00.0,30.4,22.9,20.5,-002.4,0013.29,0008.81,0008.39
2022-01-21 21:41:00,,0829.1,4.99,0.00,21.2,20.6,00.0,30.4,22.8,20.5,-002.5,0013.33,0008.84,0008.43
2022-01-21 21:42:00,,0829.1,5.01,0.00,21.2,20.6,00.0,30.3,22.8,20.5,-002.6,0013.46,0008.90,0008.48
2022-01-21 21:43:00,,0829.2,4.99,0.00,21.2,20.5,00.0,30.3,22.7,20.6,-002.6,0013.51,0008.98,0008.53
2022-01-21 21:44:00,,0829.2,5.01,0.00,21.2,20.6,00.0,30.3,22.7,20.6,-002.8,0013.32,0009.01,0008.56
2022-01-21 21:45:00,,0829.2,5.00,0.00,21.3,21.4,00.0,30.3,23.0,21.0,-002.9,0013.32,0009.04,0008.59
2022-01-21 21:46:00,,0829.2,4.99,0.00,21.4,22.4,00.0,30.4,23.4,22.1,-003.0,0013.26,0009.06,0008.63
2022-01-21 21:47:00,,0829.2,5.01,0.00,21.6,22.8,00.0,30.4,23.6,21.2,-002.8,0013.15,0009.10,0008.65
2022-01-21 21:48:00,,0829.2,4.98,0.00,21.7,22.5,00.0,30.5,23.6,20.4,-002.7,0012.83,0009.07,0008.65
2022-01-21 21:49:00,,0829.5,5.01,0.00,21.7,22.2,00.0,30.5,23.5,20.2,-002.5,0012.81,0009.06,0008.64
2022-01-21 21:50:00,,0829.5,5.00,0.00,21.7,21.9,00.0,30.5,23.4,20.1,-002.5,0012.78,0009.02,0008.61
2022-01-21 21:51:00,,0829.2,5.00,0.00,21.6,21.7,00.0,30.5,23.3,20.1,-002.5,0012.72,0008.97,0008.57
2022-01-21 21:52:00,,0829.2,5.01,0.00,21.6,21.4,00.0,30.5,23.2,20.1,-002.4,0012.60,0008.89,0008.52
2022-01-21 21:53:00,,0829.3,5.00,0.00,21.5,21.2,00.0,30.5,23.2,20.1,-002.3,0012.44,0008.81,0008.46
2022-01-21 21:54:00,,0829.3,4.99,0.00,21.5,21.1,00.0,30.5,23.1,20.1,-002.2,0012.35,0008.74,0008.41
2022-01-21 21:55:00,,0829.3,5.01,0.00,21.5,21.0,00.0,30.5,23.0,20.1,-002.1,0012.27,0008.67,0008.33
2022-01-21 21:56:00,,0829.4,4.99,0.00,21.4,20.9,00.0,30.5,23.0,20.2,-002.4,0012.30,0008.60,0008.25
2022-01-21 21:57:00,,0829.4,5.02,0.00,21.4,20.8,00.0,30.5,22.9,20.3,-002.6,0012.25,0008.52,0008.17
2022-01-21 21:58:00,,0829.5,4.98,0.00,21.3,20.7,00.0,30.5,22.9,20.4,-002.6,0012.11,0008.42,0008.10
2022-01-21 21:59:00,,0829.5,4.99,0.00,21.3,20.6,00.0,30.5,22.9,20.4,-002.8,0012.08,0008.38,0008.05
